Weather History for Ely, MN

Change the Weather History Date:

Sunday, March 3, 2013

  Actual Average Record
Temperature  
Mean Temperature 10 °F -  
Max Temperature 32 °F 23 °F 32 °F (2013)
Min Temperature -13 °F 4 °F -32 °F (2014)
Degree Days  
Heating Degree Days 56    
Moisture  
Dew Point -3 °F    
Average Humidity 53    
Maximum Humidity 77    
Minimum Humidity 30    
Precipitation  
Precipitation 0.00 in - - ()
Sea Level Pressure  
Sea Level Pressure 30.06 in    
Wind  
Wind Speed 2 mph (SE)    
Max Wind Speed 10 mph    
Max Gust Speed -    
Visibility 10 miles    
Events      
Averages and records for this station are not official NWS values.
T = Trace of Precipitation, MM = Missing Value Source: NWS Daily Summary

Daily Weather History Graph

Daily Weather History Graph

Search for Another Location

Airport:

Trip Planner

Search our weather history database for the weather conditions in past years. The results will help you decide how hot, cold, wet, or windy it might be!

Date:

Astronomy

Mar. 03, 2013 Rise Set
Actual Time 6:43 AM CST 5:55 PM CST
Civil Twilight 6:12 AM CST 6:26 PM CST
Nautical Twilight 5:37 AM CST 7:02 PM CST
Astronomical Twilight 5:01 AM CST 7:38 PM CST
Moon 12:02 AM CST (3/3) 9:30 AM CST (3/3)
Length of Visible Light 12h 13m
Length of Day
11h 11m
Waning Gibbous, 63% of the Moon is Illuminated
Mar 3
Waning Gibbous
Mar 4
Last Quarter
Mar 11
New
Mar 19
First Quarter
Mar 27
Full

Hourly Weather History & Observations

Time (CST) Temp. Windchill Dew Point Humidity Pressure Visibility Wind Dir Wind Speed Gust Speed Precip Events Conditions
12:01 AM -5.8 °F - -14.8 °F 65% 30.12 in 10.0 mi Calm Calm - N/A   Clear
12:21 AM -4.0 °F - -14.8 °F 60% 30.12 in 10.0 mi Calm Calm - N/A   Clear
12:41 AM -5.8 °F - -14.8 °F 65% 30.12 in 10.0 mi Calm Calm - N/A   Clear
1:01 AM -7.6 °F - -16.6 °F 65% 30.12 in 10.0 mi Calm Calm - N/A   Clear
1:21 AM -7.6 °F - -16.6 °F 65% 30.12 in 10.0 mi Calm Calm - N/A   Clear
1:41 AM -9.4 °F - -18.4 °F 65% 30.12 in 10.0 mi Calm Calm - N/A   Clear
2:01 AM -9.4 °F - -18.4 °F 65% 30.11 in 10.0 mi Calm Calm - N/A   Scattered Clouds
2:21 AM -7.6 °F - -16.6 °F 65% 30.11 in 10.0 mi Calm Calm - N/A   Clear
2:41 AM -9.4 °F - -14.8 °F 77% 30.11 in 10.0 mi Calm Calm - N/A   Clear
3:01 AM -9.4 °F - -16.6 °F 71% 30.11 in 10.0 mi Calm Calm - N/A   Scattered Clouds
3:21 AM -9.4 °F - -16.6 °F 71% 30.10 in 10.0 mi Calm Calm - N/A   Mostly Cloudy
3:41 AM -9.4 °F - -16.6 °F 71% 30.10 in 10.0 mi Calm Calm - N/A   Mostly Cloudy
4:01 AM -9.4 °F - -16.6 °F 71% 30.10 in 10.0 mi Calm Calm - N/A   Scattered Clouds
4:21 AM -9.4 °F - -16.6 °F 71% 30.10 in 10.0 mi Calm Calm - N/A   Clear
4:41 AM - - - N/A% 30.11 in 10.0 mi Calm Calm - N/A   Clear
5:01 AM -9.4 °F - -16.6 °F 71% 30.11 in 10.0 mi Calm Calm - N/A   Clear
5:21 AM -9.4 °F - -16.6 °F 71% 30.11 in 10.0 mi Calm Calm - N/A   Clear
5:41 AM -11.2 °F - -16.6 °F 77% 30.11 in 10.0 mi Calm Calm - N/A   Clear
6:01 AM -11.2 °F - -18.4 °F 70% 30.11 in 10.0 mi Calm Calm - N/A   Clear
6:21 AM -13.0 °F - -18.4 °F 77% 30.11 in 10.0 mi Calm Calm - N/A   Clear
6:41 AM -11.2 °F - -18.4 °F 70% 30.10 in 10.0 mi Calm Calm - N/A   Clear
7:01 AM -13.0 °F - -18.4 °F 77% 30.11 in 10.0 mi Calm Calm - N/A   Clear
7:21 AM - - - N/A% 30.10 in 10.0 mi Calm Calm - N/A   Clear
7:41 AM -9.4 °F - -16.6 °F 71% 30.10 in 10.0 mi Calm Calm - N/A   Clear
8:01 AM -7.6 °F - -14.8 °F 71% 30.10 in 10.0 mi NNE 1.2 mph - N/A   Clear
8:41 AM 3.2 °F - -7.6 °F 61% 30.08 in 10.0 mi Calm Calm - N/A   Clear
9:01 AM 8.6 °F - -4.0 °F 57% 30.08 in 10.0 mi Calm Calm - N/A   Clear
9:21 AM 15.8 °F - 6.8 °F 68% 30.07 in 10.0 mi SE 2.3 mph - N/A   Clear
9:41 AM 19.4 °F 14.3 °F 6.8 °F 58% 30.07 in 10.0 mi SSE 3.5 mph - N/A   Clear
10:01 AM 21.2 °F 16.4 °F 6.8 °F 54% 30.07 in 10.0 mi SE 3.5 mph - N/A   Clear
10:21 AM 23.0 °F - 6.8 °F 50% 30.07 in 10.0 mi SSE 2.3 mph - N/A   Clear
10:41 AM 24.8 °F 20.5 °F 5.0 °F 43% 30.07 in 10.0 mi ESE 3.5 mph - N/A   Clear
11:01 AM 24.8 °F 19.1 °F 5.0 °F 43% 30.06 in 10.0 mi SE 4.6 mph - N/A   Clear
11:21 AM 26.6 °F 22.6 °F 3.2 °F 37% 30.06 in 10.0 mi SSE 3.5 mph - N/A   Clear
11:41 AM 26.6 °F 20.0 °F 3.2 °F 37% 30.05 in 10.0 mi South 5.8 mph - N/A   Clear
12:01 PM 28.4 °F 23.3 °F 1.4 °F 31% 30.04 in 10.0 mi ESE 4.6 mph - N/A   Clear
12:21 PM 28.4 °F 20.4 °F 3.2 °F 34% 30.03 in 10.0 mi SE 8.1 mph - N/A   Clear
12:41 PM 30.2 °F 24.3 °F 5.0 °F 34% 30.03 in 10.0 mi ESE 5.8 mph - N/A   Clear
1:01 PM 30.2 °F 24.3 °F 3.2 °F 32% 30.03 in 10.0 mi South 5.8 mph - N/A   Clear
1:21 PM 30.2 °F 26.7 °F 5.0 °F 34% 30.02 in 10.0 mi SSE 3.5 mph - N/A   Clear
1:41 PM 30.2 °F 25.4 °F 3.2 °F 32% 30.02 in 10.0 mi SSE 4.6 mph - N/A   Clear
2:01 PM 30.2 °F 24.3 °F 5.0 °F 34% 30.01 in 3.0 mi SE 5.8 mph - N/A   Clear
2:21 PM 30.2 °F 26.7 °F 3.2 °F 32% 30.01 in 10.0 mi SE 3.5 mph - N/A   Clear
2:41 PM 32.0 °F 27.5 °F 3.2 °F 30% 30.01 in 10.0 mi East 4.6 mph - N/A   Clear
3:01 PM 32.0 °F 24.8 °F 5.0 °F 32% 30.00 in 10.0 mi SE 8.1 mph - N/A   Clear
3:21 PM 32.0 °F 27.5 °F 5.0 °F 32% 30.00 in 10.0 mi ESE 4.6 mph - N/A   Clear
3:41 PM 32.0 °F 25.6 °F 3.2 °F 30% 30.00 in 10.0 mi ESE 6.9 mph - N/A   Clear
4:01 PM 30.2 °F 22.6 °F 5.0 °F 34% 30.00 in 10.0 mi SSE 8.1 mph - N/A   Clear
4:21 PM 30.2 °F 23.4 °F 6.8 °F 37% 30.00 in 10.0 mi SE 6.9 mph - N/A   Clear
4:41 PM 30.2 °F 23.4 °F 6.8 °F 37% 29.99 in 10.0 mi SE 6.9 mph - N/A   Clear
5:01 PM 26.6 °F 19.1 °F 6.8 °F 43% 30.00 in 10.0 mi SE 6.9 mph - N/A   Clear
5:21 PM 26.6 °F 18.2 °F 6.8 °F 43% 30.00 in 10.0 mi SE 8.1 mph - N/A   Clear
5:41 PM 26.6 °F 16.8 °F 6.8 °F 43% 30.01 in 10.0 mi SE 10.4 mph - N/A   Clear
6:01 PM 24.8 °F 16.9 °F 6.8 °F 46% 30.02 in 10.0 mi SSE 6.9 mph - N/A   Clear
6:21 PM 24.8 °F 15.3 °F 5.0 °F 43% 30.02 in 10.0 mi SSE 9.2 mph - N/A   Scattered Clouds
6:41 PM 23.0 °F 12.4 °F 3.2 °F 43% 30.02 in 10.0 mi SSE 10.4 mph - N/A   Scattered Clouds
7:01 PM 23.0 °F 14.7 °F 3.2 °F 43% 30.03 in 10.0 mi SE 6.9 mph - N/A   Clear
7:21 PM 21.2 °F 12.6 °F 3.2 °F 46% 30.03 in 10.0 mi SE 6.9 mph - N/A   Clear
7:41 PM 21.2 °F 13.6 °F 3.2 °F 46% 30.03 in 10.0 mi SSE 5.8 mph - N/A   Mostly Cloudy
8:01 PM 19.4 °F 9.5 °F -0.4 °F 42% 30.04 in 10.0 mi SE 8.1 mph - N/A   Mostly Cloudy
8:21 PM 19.4 °F 9.5 °F -2.2 °F 39% 30.04 in 10.0 mi SE 8.1 mph - N/A   Scattered Clouds
8:41 PM 17.6 °F 9.3 °F -2.2 °F 42% 30.04 in 10.0 mi SE 5.8 mph - N/A   Mostly Cloudy
9:01 PM 17.6 °F 10.7 °F 1.4 °F 49% 30.05 in 10.0 mi SE 4.6 mph - N/A   Overcast
9:21 PM 15.8 °F 8.6 °F 1.4 °F 53% 30.05 in 10.0 mi SE 4.6 mph - N/A   Overcast
9:41 PM 14.0 °F 5.1 °F 1.4 °F 57% 30.05 in 10.0 mi SE 5.8 mph - N/A   Overcast
10:01 PM 14.0 °F 6.5 °F 1.4 °F 57% 30.05 in 10.0 mi ESE 4.6 mph - N/A   Mostly Cloudy
10:21 PM 14.0 °F - 3.2 °F 62% 30.04 in 10.0 mi ESE 1.2 mph - N/A   Scattered Clouds
10:41 PM 12.2 °F - 1.4 °F 62% 30.04 in 10.0 mi East 1.2 mph - N/A   Clear
11:01 PM 10.4 °F - 1.4 °F 67% 30.05 in 10.0 mi NE 2.3 mph - N/A   Clear
11:21 PM 12.2 °F - 1.4 °F 62% 30.05 in 10.0 mi ENE 1.2 mph - N/A   Clear
11:41 PM 8.6 °F - 1.4 °F 73% 30.05 in 10.0 mi ENE 1.2 mph - N/A   Clear